Temperature
23 22 22 21 20 19 21 23 25 25 25 25 25 25 24 23 23 21 21 21 21 21 21 20 20 20 20 20 20 19 19 19 19 19 19 19 19 19 19 19 19 19 19 19 19 19 18 18 18
23 22 22 21 20 20 22 24 25 26 26 26 25 25 24 23 22 21 20 21 21 21 21 20 20 20 20 20 19 19 19 19 19 19 19 19 19 19 19 18 18 19 19 19 19 19 18 18 18
23 22 22 19 20 21 24 26 26 26 26 26 25 24 24 22 21 21 21 21 21 21 21 20 20 20 20 20 19 19 19 19 19 19 19 19 19 19 19 19 19 19 19 19 19 19 18 18 18
23 22 22 20 21 24 26 27 27 27 26 26 24 23 23 23 22 22 21 21 21 21 21 20 20 20 20 20 19 19 19 19 19 19 19 19 19 19 19 19 19 19 19 18 18 18 18 18 18
23 22 20 20 22 26 27 28 28 27 26 25 23 22 22 23 23 22 21 21 21 21 21 20 20 20 20 20 19 19 19 19 19 19 19 19 19 19 19 19 19 19 19 19 18 18 18 18 18
23 21 20 21 24 27 28 29 28 26 25 24 23 22 21 22 22 22 21 21 22 21 21 20 20 20 20 20 19 19 19 19 19 19 19 19 19 19 19 19 18 18 18 18 18 18 18 18 18
23 20 21 23 25 27 29 29 28 26 25 24 23 21 21 21 21 21 21 21 21 21 21 20 20 20 20 20 19 19 19 19 19 19 19 19 19 19 19 18 18 18 18 18 18 18 18 18 18
24 21 22 23 26 27 29 29 28 27 25 25 24 21 21 21 21 21 21 21 21 21 21 20 20 20 20 19 19 19 19 19 19 19 18 18 18 18 18 18 18 18 18 18 18 18 18 18 18
25 21 21 24 26 27 29 28 28 27 26 25 25 25 24 21 20 20 20 20 20 20 20 20 20 20 20 19 19 19 19 19 19 18 18 18 18 18 18 18 18 18 18 18 18 18 18 18 18
25 21 23 26 27 28 29 28 27 26 25 24 23 24 23 21 21 20 20 20 20 20 20 20 20 20 19 19 19 19 19 19 18 18 18 18 18 18 18 18 18 18 18 17 17 17 17 17 17
25 24 26 27 29 29 29 28 28 26 24 23 23 23 22 21 21 20 20 20 20 20 20 19 19 19 19 19 19 19 19 18 18 18 18 18 18 18 17 17 17 17 17 17 17 17 17 17 17
26 27 28 29 30 29 29 28 27 26 26 26 25 24 22 21 21 20 20 20 20 20 20 19 19 19 19 19 19 19 19 18 18 18 18 18 18 18 17 17 17 17 17 17 17 17 17 17 17
27 27 29 29 29 29 29 27 26 25 26 25 24 23 22 21 21 20 20 20 19 19 19 19 19 19 19 19 19 19 18 18 18 18 18 18 18 17 17 17 17 17 17 17 17 17 17 17 17
27 27 28 28 29 29 28 27 25 24 24 23 23 22 22 21 21 20 20 20 19 19 19 19 19 19 19 19 19 19 18 18 18 18 18 17 17 17 17 17 17 17 17 16 16 16 16 16 16
28 26 26 27 28 28 27 26 25 24 24 22 22 22 21 21 21 20 20 20 20 19 19 19 19 19 18 19 19 18 18 18 18 18 18 18 17 17 17 17 17 16 16 16 16 16 16 16 16
25 25 24 26 27 27 26 24 25 24 23 22 21 21 21 20 20 20 20 19 19 19 18 18 18 18 18 18 18 18 18 18 18 18 18 17 17 17 17 17 16 16 16 16 16 16 16 16 16
23 23 24 26 27 27 25 24 24 24 23 21 21 20 20 20 20 20 19 19 19 18 18 18 18 18 18 18 18 18 18 18 18 18 18 17 17 17 17 17 16 16 16 16 16 16 16 16 16
23 24 25 26 27 27 25 24 23 24 23 21 20 20 19 19 19 19 19 19 19 18 18 18 18 18 18 18 18 18 18 18 18 18 17 17 17 17 16 16 16 16 16 16 16 16 16 16 16
25 25 26 27 27 26 24 23 23 23 23 21 20 19 19 19 19 19 19 18 18 18 18 18 18 18 18 18 18 18 18 18 18 17 17 17 17 16 16 16 16 16 15 15 15 15 15 15 16
26 26 26 26 26 25 23 23 23 22 22 21 20 19 19 19 19 18 18 18 18 18 18 18 18 18 18 18 18 18 18 18 17 17 17 17 17 16 16 16 15 15 15 15 15 15 15 15 15
26 26 26 26 25 23 23 21 21 21 21 21 21 20 19 19 19 18 18 18 18 18 18 18 18 18 18 18 18 18 17 17 17 17 17 17 16 16 16 16 15 15 15 15 15 15 15 15 15
26 27 27 26 23 21 22 20 20 20 20 20 20 20 19 19 19 19 18 18 18 18 18 18 18 18 18 18 18 18 18 18 17 17 17 17 16 16 16 15 15 15 15 15 15 15 15 15 15
26 26 26 24 22 20 19 20 19 19 19 20 20 20 20 19 19 19 19 18 18 18 18 18 18 18 18 18 18 18 18 18 17 17 17 17 16 16 16 15 15 15 15 15 15 15 15 15 15
27 25 23 20 19 19 19 19 19 18 19 20 20 20 20 19 19 19 19 18 18 18 18 18 18 18 18 18 18 18 18 18 17 17 17 17 16 16 16 15 15 15 15 15 15 15 15 15 15
26 23 21 21 19 19 19 19 19 20 21 20 20 20 20 20 19 19 19 18 18 18 18 18 18 18 18 18 18 18 18 18 17 17 17 17 16 16 16 16 15 15 15 15 15 15 15 14 14
25 23 21 21 20 19 19 19 19 21 21 21 21 20 20 20 19 19 19 19 18 18 18 18 18 18 18 18 18 18 18 17 17 17 17 17 17 16 16 16 16 15 15 15 15 15 14 14 14
25 23 22 20 20 18 18 19 20 21 21 21 21 20 20 20 20 20 19 19 19 18 18 19 18 18 18 18 18 18 17 17 17 17 17 17 17 16 16 16 16 15 15 15 15 15 15 14 14
25 24 21 20 20 19 19 19 19 20 20 20 20 20 20 20 20 20 20 19 19 19 19 19 19 19 18 18 18 18 18 18 17 17 17 17 17 16 16 16 16 16 15 15 15 15 15 14 14
25 23 21 19 19 19 19 19 20 20 20 19 20 20 20 20 20 20 20 20 20 19 19 19 19 18 18 18 18 18 18 18 17 17 17 17 17 17 16 16 16 16 16 15 15 15 15 15 14
24 22 20 20 19 18 18 19 21 20 20 19 20 21 21 21 21 21 21 20 20 19 19 19 19 19 19 18 18 18 18 18 17 17 17 17 17 17 17 16 16 16 16 16 16 15 15 15 15
Wind_Speed
6 6 2 1 3 3 3 4 4 3 2 3 8 10 10 6 4 4 6 16 20 18 20 23 24 23 22 21 20 19 19 18 18 17 17 17 16 16 16 15 15 14 14 13 13 13 12 12 12
4 4 1 3 3 1 5 5 4 4 5 7 9 10 9 6 7 10 9 18 21 19 20 22 24 24 23 22 20 19 19 18 17 17 17 16 16 16 15 15 14 13 13 13 12 12 12 11 11
3 3 2 2 2 4 5 4 6 5 6 7 6 5 6 7 9 7 12 21 18 16 19 23 25 24 23 22 21 19 19 18 17 17 16 16 16 15 15 14 14 13 12 12 11 11 10 10 10
1 2 2 1 7 9 7 6 6 6 5 7 9 6 3 4 7 12 21 22 20 15 18 23 25 24 23 22 21 20 19 18 17 17 16 16 15 15 14 14 13 13 12 11 10 9 9 9 8
2 3 2 3 7 7 5 7 8 6 5 8 11 7 3 4 17 22 22 21 20 15 17 22 24 24 23 22 21 20 19 17 17 17 16 15 15 14 14 13 13 12 11 10 9 8 7 7 7
2 3 1 5 7 7 3 6 7 9 10 10 10 8 3 8 20 20 20 19 19 18 15 20 24 23 23 22 21 20 19 18 17 16 16 15 14 14 13 12 12 11 10 9 8 6 6 5 5
3 1 4 6 7 5 2 5 8 9 10 8 10 8 5 9 17 19 18 17 16 16 14 15 19 21 22 21 21 20 19 18 17 16 15 15 14 13 12 11 11 10 9 8 6 5 4 3 3
5 1 5 5 4 3 1 3 6 10 8 10 10 10 8 12 17 18 17 16 16 14 13 12 15 17 18 18 20 19 18 17 16 15 15 14 13 12 12 11 10 9 8 6 5 3 2 0 2
3 1 5 5 3 4 1 3 3 5 8 5 5 7 11 20 21 20 17 14 14 14 12 11 12 13 15 16 18 18 18 17 16 14 14 13 11 10 10 9 10 9 7 6 4 2 1 1 3
5 4 9 7 4 2 2 2 4 5 6 5 5 7 16 20 23 23 22 20 18 16 13 12 12 12 14 14 15 14 14 14 13 12 12 11 10 9 9 9 9 8 6 5 3 2 2 1 3
6 8 10 9 7 2 2 1 3 7 4 8 13 16 19 20 20 21 20 20 20 18 15 13 12 12 11 9 12 10 10 11 11 11 11 9 8 8 7 6 6 5 4 3 1 1 0 0 1
7 11 11 8 6 2 2 1 2 4 7 10 16 19 18 18 17 18 19 18 17 17 15 13 12 10 9 10 9 9 7 8 7 10 11 9 6 5 5 4 4 3 3 3 2 1 1 1 1
7 8 8 8 6 3 1 2 3 3 7 13 17 17 16 16 14 13 14 15 15 14 14 13 12 10 9 9 8 8 7 8 8 9 11 11 7 5 4 4 4 4 3 3 2 2 1 1 1
7 8 9 8 6 3 1 1 4 5 11 15 16 15 14 14 13 11 13 14 14 14 14 13 13 11 9 9 7 7 8 9 9 9 11 12 10 7 5 4 4 3 3 3 4 3 2 2 2
7 9 12 8 5 3 2 2 3 9 13 13 14 14 12 10 11 13 14 13 14 14 13 12 13 11 11 10 8 8 9 9 7 9 11 12 11 9 7 4 3 3 4 5 5 4 4 3 2
7 6 6 10 4 3 5 6 5 11 14 13 12 12 10 8 10 12 12 11 11 12 13 13 13 11 9 9 7 7 8 9 8 10 11 11 12 11 8 4 3 4 6 5 3 3 3 3 3
4 4 8 10 4 3 5 5 4 8 12 12 11 11 10 9 8 11 13 12 12 12 13 13 12 12 10 9 7 7 8 8 9 10 9 10 11 11 8 4 4 6 5 3 3 3 2 2 2
8 8 8 8 4 2 2 3 3 6 9 10 10 10 10 10 10 11 11 11 12 12 12 13 12 11 10 8 7 6 6 6 7 8 9 10 10 10 9 5 5 6 4 3 3 3 2 1 1
11 12 12 9 4 2 2 2 3 5 7 9 9 10 11 10 8 8 9 10 11 11 12 12 12 11 10 8 8 7 6 6 5 5 9 10 10 10 8 5 4 4 4 3 3 2 3 2 2
14 12 10 6 3 3 3 2 0 2 5 8 11 11 11 10 9 9 9 10 10 12 12 12 12 11 10 8 7 6 6 5 5 4 6 9 9 9 8 6 4 4 4 4 4 3 3 2 2
13 9 6 4 2 6 5 4 3 2 1 2 7 10 12 14 14 12 11 10 11 12 14 13 12 11 10 9 7 6 5 4 3 4 4 5 9 8 8 7 5 4 4 4 3 4 4 2 2
10 8 4 1 3 3 4 1 5 3 2 2 5 7 10 12 12 13 12 11 12 12 12 11 12 12 11 10 10 11 8 6 6 5 5 4 7 8 9 8 7 5 4 4 3 4 3 4 2
8 5 1 1 4 4 5 2 6 3 4 4 4 7 9 12 13 14 14 13 12 11 11 11 11 11 10 10 11 10 7 5 5 5 6 5 4 7 8 8 7 5 4 4 4 4 4 3 3
6 2 6 6 6 4 2 1 6 4 5 4 4 6 9 12 12 11 11 10 9 9 10 11 12 11 10 10 10 10 10 8 8 7 7 5 3 4 5 8 6 6 5 5 4 4 5 3 3
4 2 4 6 5 2 3 1 8 9 7 7 8 8 9 11 12 11 11 11 11 11 12 12 12 11 11 11 10 10 10 10 11 9 8 6 4 4 6 5 5 4 5 5 4 4 4 4 3
7 7 7 5 5 3 2 4 8 9 7 5 6 8 10 11 12 13 13 13 12 13 13 13 13 12 12 11 10 9 9 8 7 8 8 8 6 6 7 7 6 6 7 6 5 4 3 3 3
6 5 9 7 3 3 3 5 8 6 4 2 3 7 11 13 14 14 13 13 13 13 13 13 14 12 12 12 11 9 9 9 9 8 8 7 6 7 7 7 7 6 6 6 5 3 4 4 3
6 6 6 6 5 2 3 4 5 6 5 3 4 7 8 11 13 14 14 14 13 13 12 12 12 12 11 11 11 11 9 9 9 8 8 7 7 7 9 8 8 7 6 6 5 4 3 4 3
2 2 5 5 6 6 4 6 6 9 7 5 6 7 9 11 13 14 13 13 13 12 12 12 12 11 11 11 10 10 9 9 8 8 9 9 7 8 9 9 9 8 8 7 6 5 5 5 4
4 5 7 6 3 6 5 6 5 6 5 5 5 6 8 9 10 12 13 12 12 13 13 13 13 12 12 11 10 10 9 9 9 9 9 9 9 9 10 9 9 9 8 8 8 7 6 6 6
Wind_Direction
202 211 197 52 48 40 261 242 198 189 140 92 98 105 101 90 135 152 137 136 137 143 146 143 140 137 134 132 130 128 126 123 120 118 116 114 114 114 113 112 111 109 106 104 103 102 100 98 96
199 202 141 50 77 319 264 215 189 177 153 120 93 92 88 79 94 111 125 137 138 142 143 143 141 139 137 135 134 133 130 128 126 123 121 119 118 118 117 115 113 111 109 108 106 104 101 97 94
219 196 128 99 202 217 244 205 180 169 155 128 100 70 89 119 118 127 142 139 136 140 143 145 143 141 139 138 137 136 134 132 131 128 126 125 123 121 119 118 116 114 112 110 108 106 102 98 93
159 74 61 105 253 252 239 214 168 139 115 102 107 81 57 118 132 141 142 141 138 140 143 146 144 142 141 141 140 139 138 136 134 132 131 130 128 126 123 122 120 117 115 112 109 107 104 97 89
101 90 35 287 265 267 244 194 169 146 122 108 106 101 45 40 123 137 143 142 140 140 143 146 145 144 143 143 143 142 141 140 137 136 135 134 132 130 128 128 125 122 121 119 114 109 104 95 84
39 77 74 270 271 278 231 152 134 121 121 117 110 115 106 124 134 145 145 143 142 143 143 147 148 147 146 146 146 146 146 145 144 141 140 139 136 135 134 133 132 130 128 127 125 117 107 92 74
152 150 240 261 283 283 208 138 133 133 132 140 134 118 130 146 149 147 144 141 140 142 142 145 149 149 149 149 150 149 150 150 149 147 145 144 144 143 142 142 141 139 138 137 137 131 117 89 57
173 121 288 284 289 288 195 122 134 130 132 137 135 141 166 170 152 144 141 139 141 144 146 147 148 148 150 152 154 153 153 154 153 151 152 152 152 152 153 153 152 152 153 152 150 145 138 42 349
164 106 266 260 261 276 280 99 91 100 123 131 146 163 162 153 147 142 140 138 143 148 151 151 149 150 151 154 158 156 157 158 157 158 159 158 157 159 163 165 165 164 165 168 173 179 213 303 323
155 194 242 236 242 271 326 101 134 113 109 107 107 117 136 147 150 152 153 154 155 159 161 161 158 156 156 160 156 158 159 161 161 164 165 164 167 172 174 177 173 171 173 178 193 217 242 302 324
197 217 250 264 268 272 334 352 142 133 161 175 161 153 151 154 157 159 161 161 162 163 164 164 164 163 164 153 155 159 159 163 169 174 175 171 169 169 163 166 167 167 167 154 142 109 130 318 321
244 257 261 265 266 281 272 188 146 169 193 169 157 155 157 158 163 165 163 163 161 161 167 167 165 164 164 154 160 162 163 171 176 177 170 158 152 150 150 151 153 146 142 134 116 104 99 94 102
268 272 283 279 279 259 253 179 147 157 141 144 147 154 164 165 161 161 157 156 154 159 162 163 157 163 162 155 163 165 168 176 175 166 163 154 145 145 141 138 133 135 137 133 109 96 95 99 97
283 301 302 289 282 285 217 229 119 170 144 148 153 159 167 166 160 157 155 156 156 160 160 161 156 163 162 160 159 161 165 166 159 151 150 146 142 141 133 125 115 109 114 119 106 94 88 76 76
313 321 313 288 272 260 104 322 194 166 152 154 158 159 159 159 156 158 160 158 153 154 156 157 158 161 160 157 156 157 157 156 148 143 141 138 135 133 128 120 112 105 102 99 81 66 68 67 63
331 325 296 282 253 240 131 243 231 160 158 162 162 159 153 147 154 152 154 153 146 146 154 159 161 159 156 151 145 149 152 149 144 142 139 135 134 131 121 116 109 102 96 93 87 65 67 59 61
323 279 276 288 251 188 157 231 217 166 161 162 160 156 154 147 148 153 158 162 157 156 160 161 159 158 154 149 145 142 144 144 143 140 136 133 132 130 123 118 113 104 91 83 87 70 84 72 45
268 279 286 284 268 168 181 234 180 164 155 155 157 156 162 164 168 165 166 166 164 163 166 162 158 156 151 144 133 128 132 139 141 139 139 136 134 131 123 117 110 106 94 80 78 73 62 87 69
259 276 279 282 277 131 166 185 181 165 155 154 160 161 166 170 171 165 167 169 166 168 167 163 161 161 156 151 147 145 150 150 146 146 146 141 139 135 127 118 113 109 109 112 102 86 62 37 48
266 273 281 300 359 82 92 89 140 148 180 172 166 165 166 164 164 172 177 181 175 174 172 170 166 166 164 161 156 152 146 149 152 145 149 150 143 142 140 129 130 124 113 97 82 82 82 31 52
272 259 258 256 61 48 78 12 333 324 44 159 173 169 170 170 169 173 180 182 177 175 171 172 170 167 165 157 140 130 115 109 119 146 157 161 153 147 143 142 136 131 126 122 108 99 102 76 19
275 266 239 245 70 9 43 303 297 302 309 212 192 180 177 176 171 174 178 182 186 183 174 168 169 167 168 159 155 155 157 160 175 171 168 165 159 155 152 148 142 134 132 134 132 111 109 108 61
256 260 291 71 102 63 23 71 294 324 283 254 204 192 189 180 176 177 179 182 185 183 172 166 163 167 169 167 163 161 159 162 157 155 157 163 163 163 158 153 143 136 138 141 130 116 109 114 120
250 353 33 49 68 45 317 106 282 251 246 264 238 206 192 183 180 177 174 168 176 175 170 167 169 173 173 170 169 168 166 162 157 164 167 170 169 169 165 159 151 149 147 148 146 137 127 126 122
294 76 12 351 14 260 256 203 256 258 256 247 228 211 189 181 177 174 170 173 176 174 173 174 176 179 179 176 176 176 174 170 172 173 176 172 171 181 185 165 159 158 163 162 151 144 146 145 136
253 162 173 212 222 236 264 245 261 270 275 265 214 196 180 179 181 179 180 181 183 182 180 179 181 183 183 182 183 182 177 173 177 179 177 181 185 190 183 173 173 172 170 166 156 152 165 155 153
229 220 180 149 137 133 255 275 293 285 285 287 182 175 182 184 185 182 182 183 184 186 187 184 183 184 187 187 184 185 183 179 180 181 179 182 188 190 180 175 176 176 172 167 158 163 179 171 174
194 181 110 125 153 199 247 251 244 262 254 241 201 185 187 187 184 181 182 186 187 186 185 182 183 189 189 189 190 193 190 187 181 176 181 184 185 182 173 175 177 177 175 169 164 170 180 177 191
253 122 127 130 148 155 207 254 226 222 225 221 213 195 189 187 186 182 183 185 184 180 179 182 185 188 187 186 189 188 187 187 179 179 184 184 183 178 178 180 179 179 180 176 173 187 184 190 207
184 171 147 150 184 156 168 252 280 207 216 212 206 193 188 184 185 182 180 179 180 182 183 186 188 190 191 189 187 188 183 182 182 187 188 181 179 181 180 178 181 187 187 184 184 196 196 197 208
Height
1518 1518 1518 1518 1519 1526 1526 1513 1503 1501 1500 1499 1497 1499 1502 1507 1511 1519 1515 1517 1521 1526 1529 1533 1535 1537 1539 1540 1542 1543 1544 1545 1546 1547 1548 1549 1550 1551 1552 1552 1553 1554 1554 1555 1556 1556 1557 1557 1558
1517 1518 1519 1518 1524 1534 1525 1506 1502 1497 1498 1498 1499 1501 1502 1507 1508 1510 1513 1517 1521 1526 1529 1533 1535 1537 1539 1541 1542 1543 1545 1546 1547 1548 1549 1550 1551 1552 1553 1553 1554 1555 1556 1556 1557 1558 1558 1559 1560
1517 1517 1519 1520 1525 1527 1515 1500 1496 1494 1495 1496 1499 1502 1504 1507 1509 1510 1513 1517 1522 1526 1530 1533 1536 1538 1539 1541 1543 1544 1545 1546 1547 1548 1550 1551 1552 1553 1553 1554 1555 1556 1557 1558 1558 1559 1560 1561 1561
1517 1518 1518 1523 1523 1508 1500 1494 1492 1491 1494 1495 1497 1504 1507 1509 1508 1510 1514 1518 1522 1526 1530 1533 1536 1538 1540 1541 1543 1544 1546 1547 1548 1549 1550 1551 1552 1553 1554 1555 1556 1557 1558 1559 1560 1561 1561 1562 1563
1516 1516 1520 1524 1515 1499 1491 1490 1489 1490 1493 1496 1497 1504 1507 1509 1510 1512 1515 1519 1522 1526 1530 1534 1536 1538 1540 1541 1543 1545 1546 1548 1549 1550 1551 1552 1553 1554 1555 1556 1557 1558 1559 1560 1561 1562 1563 1564 1565
1516 1516 1526 1527 1510 1494 1488 1487 1489 1490 1494 1497 1498 1503 1509 1510 1510 1514 1516 1520 1523 1526 1530 1534 1537 1539 1540 1542 1543 1545 1547 1548 1549 1550 1551 1553 1554 1555 1556 1557 1558 1559 1560 1561 1562 1563 1564 1565 1566
1516 1518 1522 1516 1506 1495 1488 1486 1487 1489 1492 1494 1495 1502 1508 1511 1511 1514 1517 1521 1524 1527 1530 1533 1536 1538 1540 1542 1544 1546 1547 1548 1549 1551 1552 1553 1554 1555 1557 1558 1559 1560 1561 1562 1563 1564 1565 1566 1567
1512 1515 1516 1512 1504 1496 1486 1486 1486 1487 1490 1493 1493 1497 1503 1507 1510 1513 1517 1520 1524 1527 1530 1532 1535 1538 1540 1542 1544 1546 1547 1549 1550 1551 1553 1554 1555 1556 1557 1558 1559 1560 1561 1562 1563 1564 1565 1566 1567
1510 1517 1519 1509 1501 1493 1486 1486 1487 1487 1489 1491 1492 1492 1495 1503 1508 1511 1516 1520 1523 1526 1530 1532 1535 1537 1540 1542 1544 1546 1547 1549 1550 1551 1553 1554 1555 1556 1557 1558 1559 1560 1561 1563 1564 1564 1565 1566 1567
1507 1516 1507 1495 1491 1488 1485 1484 1485 1488 1489 1491 1492 1493 1497 1502 1505 1508 1511 1515 1519 1524 1528 1531 1534 1536 1539 1542 1544 1546 1547 1549 1550 1551 1553 1554 1555 1556 1558 1559 1560 1561 1561 1562 1563 1564 1565 1566 1567
1501 1503 1493 1489 1486 1485 1484 1483 1484 1486 1489 1488 1488 1491 1496 1500 1503 1506 1509 1512 1516 1521 1526 1529 1533 1535 1538 1541 1543 1545 1547 1549 1550 1551 1553 1554 1555 1556 1557 1558 1559 1560 1561 1562 1563 1564 1565 1566 1566
1497 1492 1488 1485 1483 1482 1482 1482 1483 1482 1483 1484 1486 1489 1494 1498 1501 1504 1506 1511 1514 1518 1523 1528 1531 1534 1537 1540 1543 1545 1547 1548 1550 1551 1552 1554 1555 1556 1557 1558 1559 1559 1561 1561 1562 1563 1564 1565 1566
1492 1489 1485 1483 1481 1479 1479 1480 1481 1481 1481 1484 1487 1490 1493 1495 1498 1502 1506 1509 1513 1516 1521 1525 1529 1533 1536 1539 1542 1544 1547 1548 1550 1551 1552 1553 1554 1555 1556 1557 1558 1559 1560 1561 1562 1563 1564 1565 1565
1490 1487 1483 1480 1478 1477 1478 1479 1480 1482 1482 1484 1486 1489 1492 1495 1498 1501 1504 1507 1511 1513 1518 1523 1526 1531 1535 1538 1540 1543 1546 1548 1549 1550 1552 1553 1554 1555 1556 1557 1558 1558 1559 1560 1561 1562 1563 1564 1564
1489 1488 1483 1478 1476 1476 1477 1481 1479 1480 1482 1485 1487 1489 1491 1494 1496 1499 1502 1505 1508 1512 1517 1521 1525 1529 1533 1537 1539 1542 1545 1547 1549 1550 1551 1553 1554 1554 1555 1556 1557 1558 1558 1559 1560 1561 1562 1563 1564
1490 1493 1495 1479 1474 1474 1480 1489 1479 1480 1482 1485 1486 1489 1491 1494 1495 1497 1500 1504 1507 1511 1514 1519 1523 1527 1532 1536 1538 1541 1544 1546 1548 1550 1551 1552 1553 1554 1554 1555 1556 1557 1557 1558 1559 1560 1561 1562 1563
1499 1504 1498 1483 1471 1473 1478 1485 1478 1479 1481 1484 1487 1489 1491 1494 1495 1497 1500 1503 1506 1509 1513 1518 1522 1526 1531 1535 1537 1541 1543 1545 1547 1549 1550 1551 1552 1553 1553 1554 1555 1556 1556 1557 1558 1559 1560 1561 1562
1507 1502 1495 1486 1473 1473 1479 1482 1478 1479 1481 1484 1487 1489 1491 1493 1495 1496 1499 1502 1505 1508 1512 1516 1521 1525 1529 1533 1537 1539 1542 1544 1546 1548 1549 1550 1551 1552 1552 1553 1554 1555 1555 1556 1557 1558 1560 1561 1562
1493 1494 1492 1481 1470 1475 1481 1482 1480 1479 1481 1483 1485 1487 1490 1492 1494 1495 1498 1501 1504 1507 1510 1514 1519 1523 1527 1531 1534 1537 1539 1542 1545 1546 1548 1549 1550 1551 1551 1552 1553 1554 1555 1556 1557 1558 1559 1560 1561
1488 1491 1487 1479 1472 1476 1482 1484 1480 1479 1481 1481 1482 1485 1487 1490 1493 1495 1497 1500 1502 1504 1508 1512 1516 1521 1525 1529 1533 1536 1538 1541 1544 1545 1547 1548 1549 1550 1550 1551 1552 1553 1554 1555 1556 1557 1558 1559 1560
1483 1485 1482 1481 1479 1480 1484 1492 1487 1482 1481 1483 1484 1484 1486 1488 1490 1493 1496 1498 1500 1502 1506 1511 1515 1519 1523 1528 1532 1535 1538 1540 1542 1544 1545 1547 1548 1549 1550 1551 1552 1553 1554 1555 1556 1557 1558 1559 1560
1485 1472 1472 1475 1486 1499 1493 1508 1494 1487 1483 1483 1485 1485 1486 1488 1490 1492 1494 1497 1499 1502 1506 1509 1513 1519 1523 1527 1530 1532 1535 1537 1540 1542 1544 1546 1547 1548 1549 1550 1551 1552 1553 1554 1555 1556 1558 1558 1559
1474 1468 1471 1476 1489 1502 1502 1508 1502 1490 1487 1483 1482 1483 1485 1486 1488 1490 1492 1495 1498 1501 1505 1509 1513 1518 1522 1525 1528 1531 1533 1536 1539 1541 1543 1544 1546 1547 1548 1549 1550 1551 1552 1553 1554 1556 1557 1558 1559
1465 1470 1478 1488 1498 1515 1510 1510 1506 1493 1485 1481 1480 1481 1483 1485 1487 1489 1491 1494 1497 1501 1505 1508 1512 1516 1520 1523 1526 1529 1532 1535 1537 1539 1541 1543 1545 1546 1547 1548 1550 1551 1551 1552 1553 1554 1556 1557 1558
1464 1484 1505 1510 1519 1520 1508 1508 1501 1480 1476 1477 1477 1478 1481 1483 1486 1488 1490 1493 1496 1500 1503 1507 1510 1514 1517 1521 1524 1527 1530 1533 1535 1537 1539 1541 1543 1544 1546 1547 1549 1550 1551 1551 1552 1553 1554 1556 1557
1466 1478 1505 1516 1520 1518 1510 1509 1491 1474 1472 1472 1472 1475 1478 1481 1484 1486 1488 1492 1495 1498 1501 1504 1508 1511 1515 1518 1522 1525 1528 1531 1534 1536 1538 1540 1542 1543 1545 1546 1547 1548 1549 1550 1551 1552 1553 1554 1555
1464 1471 1474 1495 1505 1518 1514 1502 1485 1472 1471 1470 1471 1473 1475 1478 1482 1484 1487 1490 1493 1496 1499 1502 1506 1509 1513 1516 1520 1523 1526 1529 1532 1534 1537 1539 1540 1542 1543 1545 1546 1547 1548 1549 1550 1551 1552 1553 1554
1452 1460 1477 1493 1510 1518 1513 1505 1497 1479 1473 1472 1472 1472 1474 1476 1480 1482 1485 1488 1491 1494 1497 1501 1504 1507 1510 1514 1517 1521 1524 1527 1530 1532 1534 1536 1538 1540 1541 1543 1544 1545 1546 1547 1548 1549 1550 1552 1553
1455 1462 1471 1485 1492 1510 1517 1505 1475 1473 1471 1471 1470 1470 1472 1475 1477 1479 1482 1485 1489 1492 1495 1498 1502 1505 1507 1511 1515 1518 1521 1525 1527 1529 1532 1534 1536 1537 1539 1541 1542 1543 1544 1545 1546 1548 1549 1550 1551
1449 1457 1468 1486 1494 1497 1505 1498 1466 1466 1466 1467 1467 1468 1470 1472 1475 1477 1480 1483 1487 1490 1493 1496 1499 1502 1505 1509 1512 1515 1518 1521 1524 1526 1529 1531 1533 1535 1536 1538 1539 1540 1542 1543 1544 1545 1546 1547 1548